Valentine, NE

4:37 AM CST on December 13, 2019 (GMT -0600)
Miller Field

Weather History for KVTN - November, 2019

Change the Weather History Date:

Tuesday, November 19, 2019

  Actual Average Record
Temperature  
Mean Temperature 43 °F 32 °F  
Max Temperature 60 °F 46 °F 78 °F (1897)
Min Temperature 26 °F 20 °F -2 °F (1985)
Degree Days  
Heating Degree Days 22 32  
Month to date heating degree days 538 527  
Since 1 July heating degree days 1295 1229  
Cooling Degree Days 0 0  
Month to date cooling degree days 0 0  
Year to date cooling degree days 930 821  
Moisture  
Dew Point 29 °F    
Average Humidity 64    
Maximum Humidity 85    
Minimum Humidity 32    
Precipitation  
Precipitation 0.00 in 0.02 in 0.63 in (1975)
Month to date precipitation 0.20 0.47  
Year to date precipitation 28.27 19.47  
Snow  
Snow 0.00 in 0.20 in 5.70 in (1975)
Month to date snowfall 2.2 3.4  
Since 1 July snowfall 4.1 5.6  
Since 1 September snowfall 4.1 5.6  
Snow Depth 0.00 in    
Sea Level Pressure  
Sea Level Pressure 29.85 in    
Wind  
Wind Speed 6 mph ()    
Max Wind Speed 18 mph    
Max Gust Speed 26 mph    
Visibility 10.0 miles    
Events      
T = Trace of Precipitation, MM = Missing Value Source: Averaged Metar Reports

Daily Weather History Graph

Daily Weather History Graph

Search for Another Location

Airport or City:

Astronomy

Nov. 19, 2019 Rise Set
Actual Time 7:39 AM CST 5:15 PM CST
Civil Twilight 7:08 AM CST 5:46 PM CST
Nautical Twilight 6:33 AM CST 6:21 PM CST
Astronomical Twilight 6:00 AM CST 6:54 PM CST
Moon No Moon Rise 1:49 PM CST (11/19)
Length of Visible Light 10h 38m
Length of Day
9h 36m
Waning Gibbous, 51% of the Moon is Illuminated
Nov 19
Waning Gibbous
Nov 19
Last Quarter
Nov 26
New
Dec 4
First Quarter
Dec 11
Full

Hourly Weather History & Observations

Time (CST) Temp. Windchill Dew Point Humidity Pressure Visibility Wind Dir Wind Speed Gust Speed Precip Events Conditions
12:52 AM 30.0 °F 23.2 °F 25.0 °F 82% 29.89 in 10.0 mi WSW 6.9 mph - N/A   Clear
1:52 AM 33.1 °F 25.5 °F 27.0 °F 78% 29.88 in 10.0 mi WSW 9.2 mph - N/A   Clear
2:52 AM 30.0 °F 25.2 °F 24.1 °F 79% 29.88 in 10.0 mi WSW 4.6 mph - N/A   Clear
3:52 AM 26.1 °F 18.4 °F 21.9 °F 84% 29.88 in 10.0 mi WSW 6.9 mph - N/A   Clear
4:52 AM 28.9 °F 19.8 °F 24.1 °F 82% 29.90 in 10.0 mi WSW 10.4 mph - N/A   Clear
5:52 AM 30.0 °F 25.2 °F 25.0 °F 82% 29.90 in 10.0 mi WSW 4.6 mph - N/A   Clear
6:52 AM 30.9 °F - 26.1 °F 82% 29.92 in 10.0 mi Calm Calm - N/A   Clear
7:52 AM 32.0 °F - 27.0 °F 82% 29.92 in 10.0 mi Calm Calm - N/A   Clear
8:52 AM 35.1 °F 32.2 °F 28.9 °F 78% 29.92 in 10.0 mi WSW 3.5 mph - N/A   Clear
9:52 AM 42.1 °F 40.2 °F 32.0 °F 67% 29.93 in 10.0 mi East 3.5 mph - N/A   Clear
10:52 AM 48.9 °F - 30.9 °F 50% 29.90 in 10.0 mi East 4.6 mph - N/A   Clear
11:52 AM 55.0 °F - 30.9 °F 40% 29.88 in 10.0 mi ESE 6.9 mph - N/A   Clear
12:52 PM 57.0 °F - 32.0 °F 39% 29.83 in 10.0 mi East 12.7 mph - N/A   Partly Cloudy
2:52 PM 60.1 °F - 30.9 °F 33% 29.79 in 10.0 mi ESE 11.5 mph - N/A   Clear
3:52 PM 59.0 °F - 32.0 °F 36% 29.78 in 10.0 mi East 17.3 mph - N/A   Clear
4:52 PM 52.0 °F - 32.0 °F 47% 29.79 in 10.0 mi East 12.7 mph - N/A   Clear
5:52 PM 48.0 °F - 32.0 °F 54% 29.80 in 10.0 mi East 11.5 mph - N/A   Clear
6:52 PM 46.0 °F 41.0 °F 32.0 °F 58% 29.81 in 10.0 mi East 10.4 mph - N/A   Clear
7:52 PM 45.0 °F 40.1 °F 33.1 °F 63% 29.81 in 10.0 mi East 9.2 mph - N/A   Clear
8:52 PM 43.0 °F 38.2 °F 32.0 °F 65% 29.81 in 10.0 mi East 8.1 mph - N/A   Clear
9:52 PM 41.0 °F 35.8 °F 30.9 °F 67% 29.79 in 10.0 mi East 8.1 mph - N/A   Clear
10:52 PM 41.0 °F 37.1 °F 30.9 °F 67% 29.76 in 10.0 mi East 5.8 mph - N/A   Clear
11:52 PM 39.9 °F 35.8 °F 30.0 °F 68% 29.74 in 10.0 mi East 5.8 mph - N/A   Clear